[[{"header":{"parameterUnit":"m.s-1","parameterCategory":1,"la1":30.2991,"la2":30.254,"lo1":-89.0895,"lo2":-89.0444,"dy":0.0017,"dx":0.0017,"nx":28,"ny":28,"refTime":"2026-02-01T03:00:00:Z","depth":0,"parameterNumber":2,"parameterNumberName":"U-component_of_WINDS"},"data":[0,0,0,0,0,0,0,0,0,0,0,0,0,0,0,0,0,0,0,0,0,0,0,0,0,0,0,0,0,0,0,0,0,0,0,0,0,0,0,0,0,0,0,0,0,0,0,0,0,0,0,0,0,0,0,0,0,0,2.658,2.6581,0,2.6696,2.6697,2.6699,2.6699,2.6697,2.6696,2.6694,2.6814,2.6818,2.6823,0,0,0,0,0,0,0,0,0,0,0,0,0,2.6359,2.6363,2.658,2.6581,2.6583,2.6696,2.6697,2.6699,2.6699,2.6697,2.6696,2.6694,2.6812,2.6818,2.6823,0,0,0,0,0,0,0,0,0,0,0,0,0,2.6463,2.6364,2.658,2.6596,2.6599,2.6696,2.6697,2.6699,2.67,2.6697,2.6695,2.6693,2.681,2.6817,2.6824,2.6911,0,0,2.6845,2.6848,0,0,0,0,0,0,0,0,2.6457,2.6471,2.6592,2.6595,2.6599,2.6681,2.6663,2.677,2.67,2.6661,2.6694,2.6692,2.6771,2.6781,2.6808,2.6917,2.6922,2.6845,2.6849,2.6852,2.6854,0,0,0,0,0,0,0,2.645,2.6466,2.6626,2.6594,2.6598,2.6598,2.6611,2.6683,2.6728,2.6665,2.6665,2.6679,2.6772,2.6801,2.6811,2.6924,2.6845,2.6851,2.6855,2.6858,2.7111,2.7113,0,0,0,0,0,0,2.6439,2.646,2.6622,2.6629,2.6521,2.6604,2.6618,2.6657,2.6727,2.6735,2.668,2.6678,2.6791,2.6803,2.6815,2.6922,2.6852,2.6859,2.6863,2.7108,2.7111,2.7114,0,0,0,0,0,0,2.6434,2.6453,2.6617,2.6545,2.6566,2.661,2.6654,2.666,2.6689,2.6739,2.6747,2.6702,2.6789,2.6805,2.6887,2.6926,2.6862,2.6868,2.7105,2.7109,2.7113,2.7137,0,0,0,0,0,0,2.6428,2.6452,2.6485,2.6545,2.6569,2.6688,2.6656,2.6664,2.6701,2.6699,2.6761,2.6769,2.6789,2.6877,2.6894,2.6934,2.6873,2.7102,2.7107,2.7111,2.7133,2.7141,2.7148,0,0,0,0,0,2.642,2.6487,2.6487,2.6506,2.6612,2.669,2.6704,2.6725,2.6704,2.6738,2.677,2.6767,2.6919,2.6886,2.6905,2.6948,2.7099,2.7105,2.7111,2.7129,2.714,2.7148,0,0,0,0,0,0,2.643,2.6495,2.6496,2.6584,2.6632,2.669,2.6733,2.6735,2.679,2.6786,2.681,2.6824,2.6906,2.6935,2.6896,2.7036,2.7007,2.7017,2.7014,2.7024,2.7032,2.7023,2.6879,0,0,0,0,0,2.6443,2.65,2.6554,2.6627,2.6651,2.6688,2.6723,2.6736,2.6785,2.6805,2.6844,2.6892,2.6951,2.6989,2.7046,2.7137,2.7151,2.7176,2.7184,2.719,2.7198,2.7249,2.7261,2.7133,2.7133,2.7133,0,0,2.6469,2.6512,2.6547,2.6631,2.6669,2.6728,2.6705,2.6769,2.6813,2.6815,2.6895,2.6925,2.6981,2.7068,2.7108,2.7095,2.7237,2.7198,2.7202,2.7207,2.7256,2.7268,2.7279,2.7137,2.7136,2.7136,0,0,2.6548,2.6586,2.6651,2.669,2.6748,2.6773,2.6788,2.6847,2.6866,2.6947,2.695,2.7003,2.7104,2.7144,2.7178,2.7272,2.7272,2.729,2.733,2.738,2.739,2.7399,2.7433,2.7444,2.7298,2.7299,2.7299,0,2.6573,2.6663,2.6685,2.6749,2.6786,2.6791,2.6857,2.6894,2.6967,2.6993,2.6977,2.7104,2.7142,2.7239,2.7262,2.7289,2.7308,2.7283,2.7386,2.7396,2.7405,2.7437,2.745,2.73,2.73,2.73,2.73,0,2.6691,2.6753,2.6799,2.687,2.6913,2.6978,2.701,2.705,2.7059,2.7085,2.7167,2.7213,2.728,2.7304,2.7313,2.7402,2.7392,2.7381,2.7352,2.7418,2.7449,2.7462,2.7303,2.7302,2.7302,2.7301,0,0,2.6779,2.6862,2.6878,2.6911,2.6976,2.7024,2.709,2.7155,2.7189,2.724,2.7296,2.7381,2.7372,2.741,2.7424,2.7467,2.7539,2.7451,2.7453,2.7466,2.764,2.7648,2.7662,2.754,2.7542,2.7544,2.7636,0,2.6864,2.6981,2.7003,2.7104,2.7161,2.7168,2.7225,2.7271,2.7297,2.735,2.738,2.744,2.7423,2.7446,2.7489,2.7521,2.7575,2.7515,2.7591,2.7594,2.7577,2.7678,2.7686,2.7771,2.7648,2.765,2.7651,0,2.6979,2.7033,2.714,2.7198,2.7223,2.7274,2.7336,2.7386,2.7439,2.7455,2.7498,2.7508,2.7576,2.7544,2.7639,2.7598,2.7631,2.7652,2.7656,2.7663,2.7626,2.7688,2.7798,2.781,2.7671,2.7669,2.7668,0,2.7032,2.7132,2.7209,2.7237,2.7306,2.7342,2.7372,2.7422,2.746,2.7515,2.754,2.7601,2.7635,2.7682,2.7708,2.7682,2.7801,2.7771,2.7817,2.7816,2.7841,2.7839,2.7957,2.7863,2.7863,2.7862,2.7862,0,2.7125,2.7191,2.7234,2.7281,2.7354,2.7379,2.7451,2.7481,2.7527,2.758,2.7589,2.7639,2.7671,2.7725,2.7746,2.7822,2.7837,2.7852,2.7857,2.7851,2.7849,2.7872,2.7867,2.7866,2.7865,2.7864,2.7864,0,2.7197,2.7228,2.7313,2.7371,2.7388,2.7439,2.749,2.7536,2.7563,2.763,2.7648,2.769,2.7755,2.7785,2.7866,2.788,2.7966,2.7967,2.7948,2.7949,2.7993,2.7988,2.813,2.815,2.8042,2.8043,2.8044,0,2.7254,2.7304,2.7368,2.7405,2.7436,2.7495,2.7534,2.7561,2.7601,2.7665,2.7704,2.7769,2.7823,2.7926,2.7964,2.8026,2.8028,2.8073,2.8037,2.803,2.8028,2.8025,2.803,2.808,2.8081,2.8081,2.8082,0,2.7352,2.7365,2.7421,2.7482,2.7528,2.7578,2.7627,2.7656,2.7691,2.7736,2.7802,2.7844,2.7926,2.7991,2.8055,2.8087,2.8091,2.8093,2.8107,2.8101,2.8088,2.8096,2.7965,2.809,2.8089,2.8088,2.8088,2.8088,2.7418,2.7463,2.7515,2.7577,2.7617,2.7662,2.7709,2.7742,2.7797,2.7866,2.7879,2.795,2.8002,2.8089,2.8123,2.8178,2.8168,2.8188,2.8193,2.8197,2.8199,2.808,2.819,2.819,2.819,2.819,2.819,0,2.7516,2.755,2.7607,2.7675,2.7724,2.7723,2.7777,2.7818,2.788,2.7928,2.7981,2.8058,2.8121,2.8164,2.8228,2.8264,2.8267,2.828,2.8277,2.8285,2.8205,2.8187,2.8276,2.8276,2.8276,2.8276,2.8276,2.8276,2.7573,2.7649,2.7668,2.7765,2.7799,2.7868,2.7899,2.7941,2.798,2.8065,2.8117,2.8145,2.8191,2.8259,2.8317,2.8328,2.8351,2.8364,2.8374,2.8299,2.829,2.8281,2.8264,2.8368,2.8369,2.8449,2.845,2.845]},{"header":{"parameterUnit":"m.s-1","parameterCategory":1,"la1":30.2991,"la2":30.254,"lo1":-89.0895,"lo2":-89.0444,"dy":0.0017,"dx":0.0017,"nx":28,"ny":28,"refTime":"2026-02-01T03:00:00:Z","depth":0,"parameterNumber":3,"parameterNumberName":"V-component_of_WINDS"},"data":[0,0,0,0,0,0,0,0,0,0,0,0,0,0,0,0,0,0,0,0,0,0,0,0,0,0,0,0,0,0,0,0,0,0,0,0,0,0,0,0,0,0,0,0,0,0,0,0,0,0,0,0,0,0,0,0,0,0,-0.6807,-0.6808,0,-0.6925,-0.6926,-0.6927,-0.6949,-0.6948,-0.6947,-0.6946,-0.7069,-0.7073,-0.7077,0,0,0,0,0,0,0,0,0,0,0,0,0,-0.6605,-0.6608,-0.6807,-0.6808,-0.681,-0.6924,-0.6926,-0.6928,-0.6949,-0.6948,-0.6947,-0.6946,-0.7068,-0.7073,-0.7078,0,0,0,0,0,0,0,0,0,0,0,0,0,-0.6704,-0.6609,-0.6807,-0.6834,-0.6838,-0.6924,-0.6926,-0.6928,-0.6949,-0.6948,-0.6947,-0.6945,-0.7066,-0.7072,-0.7078,-0.7146,0,0,-0.7097,-0.71,0,0,0,0,0,0,0,0,-0.6699,-0.6712,-0.6829,-0.6833,-0.6837,-0.6921,-0.69,-0.7001,-0.695,-0.6907,-0.6946,-0.6944,-0.7021,-0.7031,-0.7056,-0.7151,-0.7157,-0.7098,-0.7102,-0.7104,-0.7106,0,0,0,0,0,0,0,-0.6692,-0.6707,-0.6853,-0.683,-0.6835,-0.6842,-0.6855,-0.6919,-0.6971,-0.6911,-0.6913,-0.6926,-0.7023,-0.705,-0.7059,-0.7158,-0.7098,-0.7103,-0.7107,-0.711,-0.7317,-0.7319,0,0,0,0,0,0,-0.6679,-0.6701,-0.685,-0.6857,-0.6763,-0.6847,-0.6861,-0.6895,-0.697,-0.698,-0.6927,-0.6927,-0.704,-0.7052,-0.7064,-0.7149,-0.7104,-0.711,-0.7114,-0.7315,-0.7317,-0.7319,0,0,0,0,0,0,-0.6675,-0.6692,-0.6845,-0.678,-0.6799,-0.6852,-0.689,-0.6898,-0.6925,-0.6983,-0.6992,-0.6945,-0.7039,-0.7055,-0.7125,-0.7153,-0.7113,-0.7119,-0.7313,-0.7316,-0.7318,-0.7318,0,0,0,0,0,0,-0.6669,-0.6691,-0.6716,-0.678,-0.6803,-0.6904,-0.6892,-0.6902,-0.6936,-0.6936,-0.7002,-0.7012,-0.7039,-0.7116,-0.7132,-0.7161,-0.7124,-0.7311,-0.7314,-0.7318,-0.7316,-0.7321,-0.7325,0,0,0,0,0,-0.6662,-0.6711,-0.6717,-0.6735,-0.6835,-0.6905,-0.6918,-0.6949,-0.6938,-0.6964,-0.7001,-0.7009,-0.7147,-0.7123,-0.7141,-0.7173,-0.7309,-0.7313,-0.7317,-0.7314,-0.732,-0.7325,0,0,0,0,0,0,-0.665,-0.672,-0.6727,-0.6799,-0.6846,-0.6909,-0.6943,-0.6954,-0.7005,-0.7004,-0.704,-0.7055,-0.7124,-0.7155,-0.7127,-0.7243,-0.7228,-0.7236,-0.7219,-0.7225,-0.7229,-0.7221,-0.7129,0,0,0,0,0,-0.6655,-0.6705,-0.6765,-0.6822,-0.6845,-0.689,-0.6922,-0.6941,-0.6992,-0.7012,-0.7054,-0.7103,-0.7158,-0.7193,-0.7247,-0.7321,-0.7336,-0.7352,-0.7356,-0.7359,-0.7366,-0.7409,-0.7417,-0.7332,-0.7332,-0.7332,0,0,-0.6668,-0.6712,-0.6742,-0.6821,-0.686,-0.6912,-0.6907,-0.6962,-0.7001,-0.702,-0.709,-0.7122,-0.718,-0.7253,-0.7287,-0.7282,-0.7392,-0.7364,-0.7366,-0.7371,-0.7414,-0.7422,-0.7429,-0.7335,-0.7335,-0.7334,0,0,-0.6717,-0.6755,-0.6808,-0.6847,-0.6905,-0.6935,-0.6948,-0.7009,-0.7032,-0.7102,-0.7118,-0.7166,-0.7259,-0.73,-0.7333,-0.7399,-0.7409,-0.7416,-0.7438,-0.748,-0.7486,-0.7492,-0.7517,-0.7526,-0.7422,-0.7422,-0.7422,0,-0.6725,-0.6803,-0.6834,-0.6889,-0.6924,-0.6943,-0.6998,-0.7034,-0.7108,-0.7132,-0.7124,-0.7242,-0.7283,-0.7366,-0.7383,-0.7408,-0.7425,-0.7408,-0.7483,-0.7489,-0.7495,-0.752,-0.7529,-0.7422,-0.7422,-0.7422,-0.7422,0,-0.6811,-0.6865,-0.6901,-0.6971,-0.701,-0.7064,-0.7105,-0.7141,-0.7157,-0.7188,-0.726,-0.7309,-0.7373,-0.7395,-0.7411,-0.7482,-0.7476,-0.7475,-0.7461,-0.7503,-0.7527,-0.7536,-0.7423,-0.7423,-0.7423,-0.7422,0,0,-0.6855,-0.6942,-0.6955,-0.6988,-0.7054,-0.7097,-0.7153,-0.7216,-0.7247,-0.7297,-0.7346,-0.7425,-0.7425,-0.7462,-0.7484,-0.752,-0.7572,-0.7515,-0.7517,-0.7525,-0.7654,-0.7655,-0.7665,-0.7578,-0.758,-0.7582,-0.7649,0,-0.6913,-0.7013,-0.7043,-0.7127,-0.7178,-0.7198,-0.7247,-0.7294,-0.7325,-0.7374,-0.7409,-0.7464,-0.7459,-0.7482,-0.7519,-0.7557,-0.7598,-0.7553,-0.7626,-0.7628,-0.7611,-0.7677,-0.7678,-0.7739,-0.7659,-0.766,-0.7661,0,-0.6994,-0.7045,-0.7134,-0.7196,-0.7219,-0.7262,-0.7323,-0.7369,-0.7423,-0.7443,-0.7485,-0.7504,-0.7565,-0.7547,-0.7633,-0.7601,-0.7633,-0.7657,-0.766,-0.7669,-0.7648,-0.7688,-0.7759,-0.7769,-0.7676,-0.7675,-0.7674,0,-0.7019,-0.7111,-0.7176,-0.7203,-0.7276,-0.7307,-0.7339,-0.7391,-0.7428,-0.7481,-0.7505,-0.7565,-0.7598,-0.7644,-0.768,-0.7663,-0.7763,-0.7747,-0.7782,-0.7781,-0.7803,-0.7801,-0.7881,-0.7822,-0.7821,-0.7821,-0.7821,0,-0.7081,-0.7135,-0.7188,-0.7229,-0.7291,-0.7325,-0.7386,-0.7419,-0.7466,-0.7514,-0.7535,-0.7581,-0.7624,-0.7675,-0.7703,-0.7771,-0.7785,-0.7804,-0.7811,-0.7803,-0.7801,-0.7825,-0.7822,-0.7824,-0.7823,-0.7823,-0.7822,0,-0.7119,-0.7157,-0.723,-0.7293,-0.7311,-0.7353,-0.7408,-0.7449,-0.7481,-0.7542,-0.7558,-0.7609,-0.767,-0.771,-0.7789,-0.7808,-0.7882,-0.7887,-0.7863,-0.7867,-0.79,-0.7897,-0.7999,-0.8015,-0.7943,-0.7944,-0.7945,0,-0.7157,-0.7199,-0.7267,-0.73,-0.7332,-0.7386,-0.7423,-0.7459,-0.7497,-0.7563,-0.7596,-0.7659,-0.7712,-0.781,-0.7854,-0.7915,-0.7923,-0.7954,-0.7932,-0.7923,-0.7925,-0.7922,-0.7927,-0.7958,-0.7959,-0.7959,-0.7959,0,-0.722,-0.7236,-0.7288,-0.7348,-0.7391,-0.744,-0.7488,-0.7515,-0.756,-0.7602,-0.7665,-0.7705,-0.7786,-0.7849,-0.7914,-0.7948,-0.7962,-0.7966,-0.7978,-0.797,-0.7955,-0.7965,-0.7874,-0.7964,-0.7963,-0.7963,-0.7963,-0.7963,-0.726,-0.7298,-0.7353,-0.741,-0.7451,-0.7496,-0.7538,-0.7575,-0.7628,-0.7696,-0.7714,-0.7781,-0.7836,-0.7925,-0.796,-0.8014,-0.801,-0.8026,-0.8031,-0.8035,-0.8036,-0.7946,-0.8026,-0.8026,-0.8026,-0.8026,-0.8026,0,-0.7325,-0.736,-0.7413,-0.7481,-0.7527,-0.7534,-0.7589,-0.7628,-0.7685,-0.7735,-0.7786,-0.786,-0.7921,-0.7971,-0.8035,-0.8068,-0.8076,-0.8084,-0.8082,-0.809,-0.8035,-0.8019,-0.8076,-0.8076,-0.8076,-0.8076,-0.8076,-0.8076,-0.7364,-0.7431,-0.7454,-0.7542,-0.7578,-0.7642,-0.7673,-0.7716,-0.7756,-0.7836,-0.7887,-0.7919,-0.797,-0.8037,-0.8095,-0.8108,-0.8131,-0.8138,-0.8152,-0.81,-0.8094,-0.8089,-0.8074,-0.8142,-0.8142,-0.8204,-0.8204,-0.8205]}]]